Location: Newark
(33.6439°N, 114.9881°W)
Time: 06:32:19
(UTC+00:00)

Tiros 1 - Pass Details

Date: 26 July 2019
Orbit: 631 x 664 km, 48.4° (Epoch: 24 August)

Event Time Altitude Azimuth Distance (km) Brightness Sun altitude
Rises 00:12:29 0° 310° (NW) 2,995 11.3 29.9°
Reaches altitude 10° 00:14:52 10° 313° (NW) 2,079 10.7 29.4°
Maximum altitude 00:19:39 67° 36° (NE) 712 7.7 28.4°
Drops below altitude 10° 00:24:23 10° 120° (ESE) 2,057 9.3 27.4°
Sets 00:26:43 0° 123° (ESE) 2,960 10.1 26.9°
